Location: ?
(35.4554°N, 139.3092°E)
Time: 20:57:11
(UTC+00:00)

Cosmos 1821 Rocket - Pass Details

Date: 21 April 2021
Orbit: 946 x 1004 km, 82.9° (Epoch: 10 May)

Event Time Altitude Azimuth Distance (km) Brightness Sun altitude
Rises 16:59:07 0° 352° (N) 3,709 7.6 -32.4°
Reaches altitude 10° 17:01:38 10° 352° (N) 2,764 6.8 -32.0°
Enters shadow 17:07:16 71° 340° (NNW) 1,053 4.1 -31.3°
